[[{"header":{"parameterUnit":"m.s-1","parameterCategory":1,"la1":30.2991,"la2":30.254,"lo1":-89.0895,"lo2":-89.0444,"dy":0.0017,"dx":0.0017,"nx":28,"ny":28,"refTime":"2025-12-05T09:00:00:Z","depth":0,"parameterNumber":2,"parameterNumberName":"U-component_of_WINDS"},"data":[0,0,0,0,0,0,0,0,0,0,0,0,0,0,0,0,0,0,0,0,0,0,0,0,0,0,0,0,0,0,0,0,0,0,0,0,0,0,0,0,0,0,0,0,0,0,0,0,0,0,0,0,0,0,0,0,0,0,1.1384,1.1383,0,1.1271,1.127,1.1269,1.1215,1.1215,1.1215,1.1215,1.1102,1.1099,1.1096,0,0,0,0,0,0,0,0,0,0,0,0,0,1.1556,1.1553,1.1384,1.1382,1.1381,1.1272,1.127,1.1269,1.1215,1.1215,1.1215,1.1215,1.1103,1.11,1.1096,0,0,0,0,0,0,0,0,0,0,0,0,0,1.1466,1.1552,1.1384,1.1341,1.1336,1.1272,1.127,1.1268,1.1215,1.1215,1.1215,1.1215,1.1105,1.11,1.1096,1.1066,0,0,1.1082,1.108,0,0,0,0,0,0,0,0,1.1471,1.146,1.1349,1.1344,1.1338,1.1257,1.1289,1.1201,1.1215,1.1261,1.1215,1.1215,1.1154,1.1145,1.1124,1.1061,1.1056,1.1081,1.1079,1.1077,1.1075,0,0,0,0,0,0,0,1.1478,1.1464,1.1339,1.1347,1.1341,1.1329,1.1316,1.1272,1.1209,1.1257,1.1253,1.124,1.1151,1.1129,1.1121,1.1054,1.1081,1.1077,1.1075,1.1073,1.0964,1.0964,0,0,0,0,0,0,1.149,1.147,1.1343,1.1336,1.1406,1.1326,1.1311,1.1283,1.1209,1.1198,1.1241,1.1238,1.1137,1.1127,1.1117,1.1078,1.1077,1.1072,1.107,1.0964,1.0964,1.0964,0,0,0,0,0,0,1.1494,1.148,1.1348,1.1402,1.1384,1.1323,1.1292,1.1281,1.1259,1.1196,1.1185,1.1229,1.1136,1.1124,1.108,1.1074,1.107,1.1066,1.0964,1.0964,1.0964,1.1001,0,0,0,0,0,0,1.1499,1.1481,1.1468,1.1402,1.1381,1.1311,1.1291,1.1279,1.1251,1.1247,1.1183,1.1172,1.1135,1.1087,1.1075,1.1067,1.1063,1.0964,1.0964,1.0964,1.1,1.1002,1.1004,0,0,0,0,0,1.1506,1.1483,1.1468,1.1453,1.1364,1.131,1.1299,1.1256,1.125,1.1237,1.1198,1.1174,1.1077,1.1083,1.1069,1.106,1.0964,1.0964,1.0964,1.0999,1.1001,1.1004,0,0,0,0,0,0,1.155,1.1474,1.1456,1.1411,1.1368,1.1301,1.1284,1.126,1.1218,1.1216,1.1166,1.1153,1.1113,1.1082,1.109,1.1029,1.1019,1.1015,1.105,1.1052,1.1054,1.1061,1.1059,0,0,0,0,0,1.1555,1.1517,1.1453,1.142,1.1399,1.1345,1.132,1.1292,1.1245,1.1227,1.1184,1.114,1.11,1.1075,1.1034,1.0996,1.0982,1.0983,1.0985,1.0987,1.0985,1.0964,1.0964,1.0962,1.0962,1.0962,0,0,1.1564,1.1518,1.1497,1.1427,1.139,1.1354,1.133,1.1292,1.1264,1.1221,1.1177,1.1144,1.1093,1.1052,1.1032,1.1025,1.0982,1.0987,1.0989,1.0985,1.0963,1.0964,1.0964,1.0962,1.0962,1.0962,0,0,1.1562,1.1523,1.1491,1.1455,1.1399,1.1364,1.1357,1.1295,1.1272,1.1227,1.1194,1.1162,1.1093,1.1058,1.1031,1.1019,1.0996,1.1008,1.1017,1.0998,1.0998,1.0997,1.0994,1.0993,1.1006,1.1006,1.1006,0,1.158,1.1522,1.1478,1.1441,1.1413,1.1373,1.1341,1.1309,1.1243,1.1225,1.1218,1.1133,1.1095,1.1046,1.1044,1.1023,1.1014,1.1014,1.1001,1.1,1.1,1.0996,1.0994,1.1008,1.1008,1.1007,1.1007,0,1.1548,1.1508,1.149,1.1427,1.1397,1.1363,1.1316,1.129,1.1265,1.1232,1.1188,1.1142,1.1092,1.1079,1.1054,1.1027,1.1025,1.101,1.0999,1.1002,1.0998,1.0996,1.101,1.101,1.1009,1.1009,0,0,1.1567,1.1483,1.1477,1.1449,1.1386,1.1355,1.1322,1.1273,1.1252,1.121,1.118,1.1125,1.1112,1.1082,1.1053,1.1036,1.103,1.1024,1.1022,1.1027,1.0999,1.101,1.1009,1.1016,1.1015,1.1015,1.1004,0,1.1556,1.1491,1.1452,1.1404,1.1368,1.1331,1.1302,1.1261,1.123,1.1196,1.1162,1.1123,1.1109,1.109,1.1072,1.1035,1.1024,1.1035,1.0989,1.0987,1.1001,1.1006,1.1016,1.1008,1.1002,1.1001,1.1001,0,1.1533,1.1491,1.1439,1.1383,1.1366,1.134,1.1293,1.1261,1.1215,1.1194,1.1162,1.1133,1.1098,1.1091,1.1042,1.105,1.103,1.1009,1.1008,1.1001,1.0994,1.0999,1.1004,1.1003,1.0998,1.0998,1.0998,0,1.1553,1.1484,1.1444,1.1421,1.1354,1.1337,1.1308,1.1263,1.1237,1.1196,1.1179,1.1136,1.1112,1.108,1.1042,1.104,1.0997,1.0986,1.0979,1.098,1.097,1.0971,1.0972,1.0958,1.0958,1.0958,1.0958,0,1.1543,1.1513,1.1452,1.1428,1.1394,1.135,1.1318,1.1287,1.1247,1.1217,1.1184,1.1157,1.1108,1.1076,1.1046,1.101,1.1,1.0983,1.0975,1.0985,1.0987,1.097,1.0969,1.0958,1.0958,1.0958,1.0958,0,1.1558,1.1516,1.1471,1.1412,1.1396,1.1374,1.1324,1.13,1.1268,1.1231,1.122,1.117,1.113,1.1089,1.1035,1.1016,1.0981,1.0971,1.0996,1.0992,1.0987,1.0988,1.0975,1.0972,1.0962,1.0962,1.0962,0,1.1554,1.153,1.1469,1.1446,1.1419,1.1383,1.1356,1.1314,1.1288,1.1235,1.1218,1.1176,1.114,1.1079,1.1038,1.0998,1.0986,1.0985,1.098,1.0991,1.0986,1.0987,1.0985,1.0986,1.0986,1.0987,1.0987,0,1.1552,1.1533,1.1496,1.1451,1.1421,1.1384,1.1346,1.133,1.1281,1.1254,1.1212,1.1185,1.1131,1.109,1.1045,1.1017,1.0994,1.0989,1.0985,1.0995,1.101,1.1002,1.1,1.0989,1.0989,1.0989,1.0989,1.0988,1.1557,1.1535,1.1489,1.1449,1.1416,1.1382,1.1357,1.1322,1.1287,1.1239,1.1217,1.1176,1.1134,1.1071,1.1045,1.1013,1.1007,1.1001,1.0999,1.0998,1.1001,1.1017,1.1005,1.1005,1.1005,1.1005,1.1005,0,1.1553,1.1522,1.1486,1.1434,1.1404,1.1385,1.1343,1.1319,1.1283,1.1245,1.1211,1.1165,1.1126,1.1084,1.1042,1.1026,1.1014,1.1016,1.1016,1.1011,1.1009,1.1016,1.1026,1.1026,1.1026,1.1026,1.1026,1.1026,1.1547,1.1509,1.1485,1.1431,1.14,1.1359,1.1337,1.1306,1.1276,1.1226,1.1193,1.1166,1.1127,1.1083,1.1047,1.1036,1.1023,1.1028,1.1013,1.1012,1.1011,1.1009,1.1016,1.1025,1.1025,1.1017,1.1017,1.1017]},{"header":{"parameterUnit":"m.s-1","parameterCategory":1,"la1":30.2991,"la2":30.254,"lo1":-89.0895,"lo2":-89.0444,"dy":0.0017,"dx":0.0017,"nx":28,"ny":28,"refTime":"2025-12-05T09:00:00:Z","depth":0,"parameterNumber":3,"parameterNumberName":"V-component_of_WINDS"},"data":[0,0,0,0,0,0,0,0,0,0,0,0,0,0,0,0,0,0,0,0,0,0,0,0,0,0,0,0,0,0,0,0,0,0,0,0,0,0,0,0,0,0,0,0,0,0,0,0,0,0,0,0,0,0,0,0,0,0,-1.8842,-1.8842,0,-1.887,-1.8871,-1.8871,-1.8849,-1.8848,-1.8847,-1.8846,-1.8874,-1.8876,-1.8877,0,0,0,0,0,0,0,0,0,0,0,0,0,-1.8766,-1.8768,-1.8842,-1.8842,-1.8842,-1.887,-1.8871,-1.8871,-1.8849,-1.8848,-1.8847,-1.8846,-1.8874,-1.8876,-1.8878,0,0,0,0,0,0,0,0,0,0,0,0,0,-1.8797,-1.8768,-1.8842,-1.8835,-1.8834,-1.887,-1.8871,-1.8871,-1.8849,-1.8848,-1.8846,-1.8845,-1.8873,-1.8875,-1.8878,-1.8922,0,0,-1.8885,-1.8886,0,0,0,0,0,0,0,0,-1.8796,-1.88,-1.8835,-1.8835,-1.8835,-1.8855,-1.8854,-1.8888,-1.885,-1.8844,-1.8846,-1.8844,-1.8869,-1.8871,-1.888,-1.8923,-1.8924,-1.8886,-1.8887,-1.8888,-1.8889,0,0,0,0,0,0,0,-1.8794,-1.8799,-1.8853,-1.8836,-1.8836,-1.883,-1.8833,-1.8861,-1.8864,-1.8844,-1.8842,-1.8846,-1.8868,-1.8878,-1.888,-1.8925,-1.8885,-1.8888,-1.8889,-1.889,-1.9005,-1.9007,0,0,0,0,0,0,-1.8792,-1.8797,-1.8852,-1.8854,-1.8811,-1.8832,-1.8835,-1.885,-1.8863,-1.8864,-1.8847,-1.8845,-1.8874,-1.8878,-1.8881,-1.8934,-1.8888,-1.889,-1.8892,-1.9004,-1.9005,-1.9007,0,0,0,0,0,0,-1.8791,-1.8797,-1.8851,-1.8825,-1.8832,-1.8835,-1.8851,-1.8851,-1.886,-1.8866,-1.8866,-1.8856,-1.8873,-1.8878,-1.8912,-1.8935,-1.8891,-1.8894,-1.9002,-1.9004,-1.9006,-1.904,0,0,0,0,0,0,-1.8789,-1.8797,-1.8814,-1.8826,-1.8833,-1.8882,-1.8853,-1.8853,-1.8865,-1.8862,-1.8875,-1.8875,-1.8872,-1.8908,-1.8914,-1.8937,-1.8896,-1.9,-1.9003,-1.9006,-1.9036,-1.9043,-1.9048,0,0,0,0,0,-1.8786,-1.8822,-1.8815,-1.8822,-1.8854,-1.8883,-1.8887,-1.8883,-1.8867,-1.8884,-1.8887,-1.8875,-1.8931,-1.8912,-1.8919,-1.8943,-1.8998,-1.9002,-1.9005,-1.9034,-1.9042,-1.9048,0,0,0,0,0,0,-1.8812,-1.8823,-1.8816,-1.8856,-1.8869,-1.8879,-1.89,-1.8891,-1.8909,-1.8905,-1.8899,-1.8902,-1.8938,-1.8944,-1.8922,-1.8986,-1.8962,-1.8967,-1.8981,-1.8989,-1.8994,-1.8993,-1.8898,0,0,0,0,0,-1.8823,-1.8846,-1.8854,-1.8889,-1.8895,-1.8897,-1.8909,-1.8905,-1.8918,-1.8923,-1.8929,-1.8941,-1.8962,-1.8975,-1.8994,-1.9037,-1.9039,-1.9056,-1.9062,-1.9067,-1.9072,-1.9095,-1.9103,-1.9019,-1.9019,-1.9019,0,0,-1.8845,-1.8854,-1.8868,-1.8894,-1.8903,-1.8927,-1.8901,-1.8927,-1.8944,-1.8926,-1.896,-1.8964,-1.8978,-1.9016,-1.9033,-1.9022,-1.9095,-1.9072,-1.9075,-1.9077,-1.91,-1.9108,-1.9115,-1.9021,-1.9021,-1.902,0,0,-1.8897,-1.8906,-1.8936,-1.8946,-1.8961,-1.8961,-1.8969,-1.898,-1.8983,-1.9016,-1.9003,-1.9023,-1.9058,-1.9069,-1.9078,-1.9134,-1.9124,-1.914,-1.9171,-1.9194,-1.9201,-1.9207,-1.9228,-1.9235,-1.9145,-1.9145,-1.9145,0,-1.8923,-1.8958,-1.8953,-1.898,-1.8992,-1.8977,-1.9008,-1.9017,-1.9037,-1.9046,-1.9032,-1.9076,-1.9084,-1.9125,-1.9139,-1.9147,-1.9155,-1.914,-1.92,-1.9206,-1.9212,-1.9231,-1.9239,-1.9147,-1.9147,-1.9147,-1.9146,0,-1.8989,-1.9013,-1.9036,-1.9056,-1.907,-1.9099,-1.9098,-1.9113,-1.9108,-1.911,-1.9144,-1.9153,-1.9173,-1.9183,-1.9177,-1.9223,-1.9215,-1.9201,-1.9177,-1.9222,-1.924,-1.9248,-1.915,-1.9149,-1.9149,-1.9148,0,0,-1.9059,-1.9076,-1.9085,-1.9094,-1.9109,-1.9127,-1.9155,-1.9176,-1.9189,-1.9203,-1.9226,-1.9256,-1.9244,-1.9255,-1.925,-1.927,-1.9315,-1.9253,-1.9254,-1.9265,-1.9366,-1.9378,-1.9387,-1.9307,-1.9309,-1.931,-1.9366,0,-1.9113,-1.9162,-1.9159,-1.9205,-1.9228,-1.9214,-1.9238,-1.9249,-1.9252,-1.9271,-1.9273,-1.9295,-1.9276,-1.9283,-1.9302,-1.9305,-1.9335,-1.9301,-1.9329,-1.9331,-1.9328,-1.9396,-1.9408,-1.9461,-1.9373,-1.9374,-1.9375,0,-1.9182,-1.9199,-1.9248,-1.926,-1.9269,-1.9291,-1.931,-1.9329,-1.9341,-1.9342,-1.9354,-1.9347,-1.9374,-1.9349,-1.9387,-1.9364,-1.9375,-1.9379,-1.9381,-1.9384,-1.9356,-1.9403,-1.9477,-1.9486,-1.9386,-1.9385,-1.9384,0,-1.923,-1.9265,-1.9299,-1.9307,-1.9321,-1.9337,-1.9343,-1.9355,-1.9367,-1.9384,-1.9392,-1.9411,-1.9422,-1.9436,-1.9434,-1.9416,-1.9473,-1.9448,-1.9475,-1.9475,-1.9488,-1.9488,-1.9567,-1.9494,-1.9494,-1.9494,-1.9493,0,-1.9291,-1.9321,-1.932,-1.9341,-1.9375,-1.937,-1.9404,-1.9408,-1.9419,-1.944,-1.9428,-1.9449,-1.9444,-1.9464,-1.9462,-1.9494,-1.9499,-1.95,-1.95,-1.9502,-1.9502,-1.951,-1.9507,-1.9496,-1.9495,-1.9495,-1.9494,0,-1.935,-1.9351,-1.9387,-1.9397,-1.9401,-1.9425,-1.9434,-1.9454,-1.9455,-1.9482,-1.9489,-1.9491,-1.9514,-1.9513,-1.9538,-1.9537,-1.9577,-1.9572,-1.9574,-1.9573,-1.9601,-1.9598,-1.9689,-1.9701,-1.9618,-1.9619,-1.962,0,-1.939,-1.9413,-1.9426,-1.944,-1.9448,-1.947,-1.9483,-1.9479,-1.9493,-1.9509,-1.9527,-1.9549,-1.9567,-1.9604,-1.9608,-1.9628,-1.9623,-1.9653,-1.9626,-1.9628,-1.9625,-1.9624,-1.9627,-1.9659,-1.966,-1.9661,-1.9661,0,-1.946,-1.9459,-1.9479,-1.9499,-1.9515,-1.953,-1.9545,-1.9556,-1.9554,-1.957,-1.9594,-1.9607,-1.9634,-1.9656,-1.9675,-1.9681,-1.9672,-1.967,-1.9677,-1.9681,-1.9681,-1.9683,-1.959,-1.9668,-1.9667,-1.9667,-1.9667,-1.9666,-1.9511,-1.9532,-1.9544,-1.9567,-1.9577,-1.959,-1.961,-1.9614,-1.9634,-1.9656,-1.9651,-1.9678,-1.969,-1.9715,-1.9723,-1.9743,-1.9733,-1.9743,-1.9746,-1.9749,-1.9753,-1.9677,-1.9747,-1.9746,-1.9746,-1.9746,-1.9746,0,-1.9582,-1.9589,-1.961,-1.963,-1.9648,-1.9637,-1.9652,-1.9668,-1.9692,-1.9704,-1.9721,-1.9749,-1.977,-1.9776,-1.9796,-1.9812,-1.9808,-1.9817,-1.9817,-1.9819,-1.9761,-1.9753,-1.982,-1.982,-1.982,-1.982,-1.982,-1.982,-1.9621,-1.9655,-1.9656,-1.9695,-1.9702,-1.9729,-1.9738,-1.9751,-1.976,-1.9792,-1.981,-1.9813,-1.9823,-1.9844,-1.9863,-1.9864,-1.9873,-1.9885,-1.9884,-1.983,-1.9823,-1.9815,-1.9808,-1.9886,-1.9886,-1.994,-1.994,-1.9941]}]]